星链-35715(STARLINK-35715)

导读

STARLINK-35715是美国太空探索技术公司(SpaceX)星链(Starlink)星座的一颗卫星,于2025年12月31日发射入轨,属于星链第二代星座组网卫星。星链项目旨在构建全球卫星互联网,为地面盲区提供高速宽带通信服务,已拓展至海事、航空、应急通信及手机直连场景,STARLINK-35715将助力覆盖范围进一步拓展,提升星座整体通信容量与服务能力。

基本信息
目录编号:
66841
目录名称:
STARLINK-35715
国际标识:
2025-280W
轨道中心:
EARTH
卫星名称:
星链-35715
卫星全名:
星链-35715(STARLINK-35715)
卫星状态:
在轨 (已飞行277 天)
发射日期:
2025-12-02 UTC
国别 :
美国 (US)
星等 :
--
轨道信息
数据来源 国际轨道数据
星历时间: 2026-09-05T17:58:40+0800
6小时前
查看轨道信息
半长轴: 6950.179km
偏心率: 0.0003657
轨道倾角: 69.999°
近地点辐角 269.010°
升交点赤经 241.441°
平近点角 91.064°
近地点: 569.5km
远地点: 574.584km
周期: 96.107分钟
每日圈数: 14.983347
详细信息
固有亮度:
5
最大亮度:
2.5
卫星平台:
Starlink V1.0
覆盖范围:
全球
运营商:
太空探索技术公司
运营商所在国:
美国
制造商(研发单位):
太空探索技术公司
制造商所在国:
美国
使用方式:
暂无
卫星简介
Starlink 计划是 SpaceX 推出的全球卫星互联网项目,通过发射低轨道卫星,为全球尤其是偏远地区提供高速、低延迟的互联网服务。自 2019 年起,Starlink 已部署数千颗卫星,旨在缩小全球数字鸿沟,推动互联网普及。该项目还为军事、航空等行业提供通信支持,带来广泛经济效益。
2D轨道图
3D轨道图
轨道高度分析图
轨道倾角分析图
轨道综合分析图
查看轨道综合分析图